(11) Parthenope
ephemeris date magn radius delta ra dec elong phase
Today14 Feb 202511.72.528 AU2.387 AU03h21m+14°31'86.5°23.0°
Opposition25 Feb 202610.22.689 AU1.700 AU10h41m+12°24'176.1°1.4°
(11) Parthenope - 2025-02-14
astro.vanbuitenen.nl


 
-1 year
-1 month
-1 day
Now
+1 day
+1 month
+1 year

The interactive orbit chart above shows the body's path through the solar system and its position at the given date. Green and blue lines are shown perpendicular to the ecliptic plane: Green if the path is above the ecliptic plane, blue if it is below. (Left-click and drag to rotate the view; Right-click and drag to move the view; Use scroll wheel to zoom in our out.)

The orbital elements of Parthenope are:

            e (Eccentricity)                : 0.0997989
            a (Semimajor axis)              : 2.4543177
            i (Inclination)                 : 4.63342
            Ω (Longitude of ascending node) : 125.47457
            ω (Argument of perihelion)      : 196.37206
            M (Mean anomaly)                : 122.46023
            Epoch                           : 2025 May 05

            L (Longitude of perihelion)     : 141.79598
            B (Latitude of perihelion)      : -1.30473
            P (Orbital period in years)     : 3.84            
        

The light curve chart below shows the estimated development of the minor planet's magnitude.


The all-sky chart below shows the path of the minor planet over the same period as the light curve. The current position is marked yellow.





The following chart shows the path of the minor planet in the next few days. The field of view is optimized for (~10x50) binoculars and finderscopes. A more printer-friendly version of the same chart can be found below.




Ephemerides:
Date       Time       RA (2000)    DEC (2000)    delta   radius  elong  phase   PA    magn
2025-02-14 00:00 UT   03 21 18.3   +14 31 22     2.387    2.528   86.5   23.0    75   11.7 
2025-02-14 14:04 UT   03 21 54.4   +14 34 54     2.395    2.528   86.1   22.9    76   11.7 
2025-02-15 00:00 UT   03 22 20.1   +14 37 23     2.401    2.529   85.8   22.9    76   11.7 
2025-02-16 00:00 UT   03 23 22.8   +14 43 25     2.415    2.530   85.1   22.9    76   11.8 
2025-02-17 00:00 UT   03 24 26.4   +14 49 28     2.429    2.531   84.3   22.9    76   11.8 
2025-02-18 00:00 UT   03 25 30.9   +14 55 31     2.443    2.532   83.6   22.8    76   11.8 
2025-02-19 00:00 UT   03 26 36.4   +15 01 35     2.458    2.533   82.9   22.8    76   11.8 
2025-02-20 00:00 UT   03 27 42.7   +15 07 39     2.472    2.534   82.2   22.7    76   11.8 
2025-02-21 00:00 UT   03 28 50.0   +15 13 43     2.486    2.535   81.4   22.7    76   11.8 
2025-02-22 00:00 UT   03 29 58.0   +15 19 47     2.500    2.536   80.7   22.6    77   11.8 
2025-02-23 00:00 UT   03 31 07.0   +15 25 51     2.514    2.537   80.0   22.6    77   11.8 
2025-02-24 00:00 UT   03 32 16.8   +15 31 56     2.528    2.538   79.3   22.5    77   11.8 
2025-02-25 00:00 UT   03 33 27.4   +15 37 60     2.542    2.539   78.6   22.5    77   11.9 
2025-02-26 00:00 UT   03 34 38.9   +15 44 03     2.556    2.540   77.9   22.4    77   11.9 
2025-02-27 00:00 UT   03 35 51.2   +15 50 07     2.569    2.541   77.2   22.3    77   11.9 
2025-02-28 00:00 UT   03 37 04.2   +15 56 10     2.583    2.542   76.5   22.3    77   11.9 
2025-03-01 00:00 UT   03 38 18.1   +16 02 12     2.597    2.543   75.8   22.2    77   11.9 
2025-03-02 00:00 UT   03 39 32.7   +16 08 14     2.611    2.544   75.1   22.1    78   11.9 
2025-03-03 00:00 UT   03 40 48.1   +16 14 15     2.625    2.545   74.4   22.0    78   11.9 
2025-03-04 00:00 UT   03 42 04.3   +16 20 15     2.638    2.546   73.7   22.0    78   11.9 
2025-03-05 00:00 UT   03 43 21.1   +16 26 14     2.652    2.547   73.1   21.9    78   11.9 
2025-03-06 00:00 UT   03 44 38.7   +16 32 12     2.666    2.548   72.4   21.8    78   11.9 
2025-03-07 00:00 UT   03 45 57.0   +16 38 08     2.679    2.549   71.7   21.7    78   12.0 
2025-03-08 00:00 UT   03 47 16.0   +16 44 04     2.693    2.549   71.0   21.6    78   12.0 
2025-03-09 00:00 UT   03 48 35.7   +16 49 58     2.706    2.550   70.4   21.5    79   12.0 
2025-03-10 00:00 UT   03 49 56.0   +16 55 50     2.720    2.551   69.7   21.4    79   12.0 
2025-03-11 00:00 UT   03 51 17.0   +17 01 41     2.733    2.552   69.1   21.3    79   12.0 
2025-03-12 00:00 UT   03 52 38.6   +17 07 31     2.746    2.553   68.4   21.2    79   12.0 
2025-03-13 00:00 UT   03 54 00.9   +17 13 18     2.759    2.554   67.7   21.1    79   12.0 


    Terminology:
            
    delta:  distance between minor planet and earth in AU
    radius: distance between minor planet and sun in AU
    magn:   magnitude (brightness) estimate    
    ra:     right ascension in hours (24h = 360deg)
    dec:    declination in degrees
    elong:  elongation in degrees (angle sun-earth-minor planet)    
    phase:  phase angle in degrees (angle sun-minor planet-earth)        
    AU:     Astronomical Unit (mean distance between earth and sun: 149597870.7 km
    

Orbital elements provided by the MPC (Minor Planet Center).
Calculations by a modified version of AAPlus, a C# implementation of the AA+ project by PJ Naughter from the algorithms presented in the book "Astronomical Algorithms" by Jean Meeus.
NGC2000 dso catalog and star labels from VizieR as provided by the Strasbourg astronomical Data Center.
Tycho2 catalog from the ESO archive.